PGT867T LTFJ-LTFE

Flight info

Callsign PGT867T
Flight time 0h 48m
Altitude 34000
Route ROXUK1K/24R ROXUK UT409 NUMTI DCT KULAR UT44 KAVAK
Aircraft B738/M-SDE2E3FGHIRWXY/LB1

Departure

Time 2026-04-24 09:20
Airport Istanbul Sabiha Gökçen International Airport (LTFJ)

Arrival

Time 2026-04-24 10:08
Airport Milas Bodrum International Airport (LTFE)
Time Latitude Longitude Altitude Speed Heading
2026-04-24 08:52 40.90958 29.31842 310 ft 0 kts 244°
2026-04-24 09:10 40.90968 29.31867 310 ft 4 kts 234°
2026-04-24 09:10 40.90986 29.31891 309 ft 4 kts 205°
2026-04-24 09:11 40.91006 29.31895 310 ft 2 kts 154°
2026-04-24 09:11 40.91007 29.31895 310 ft 1 kts 154°
2026-04-24 09:13 40.91001 29.31899 310 ft 2 kts 154°
2026-04-24 09:13 40.90975 29.31916 310 ft 7 kts 154°
2026-04-24 09:14 40.90931 29.31944 310 ft 7 kts 154°
2026-04-24 09:14 40.90888 29.31972 310 ft 7 kts 150°
2026-04-24 09:14 40.90856 29.32017 309 ft 7 kts 128°
2026-04-24 09:14 40.90825 29.32062 309 ft 7 kts 141°
2026-04-24 09:15 40.90785 29.32090 310 ft 6 kts 154°
2026-04-24 09:15 40.90745 29.32116 310 ft 6 kts 154°
2026-04-24 09:15 40.90718 29.32156 310 ft 6 kts 92°
2026-04-24 09:15 40.90733 29.32209 310 ft 6 kts 66°
2026-04-24 09:16 40.90727 29.32261 310 ft 7 kts 131°
2026-04-24 09:16 40.90681 29.32297 310 ft 8 kts 154°
2026-04-24 09:16 40.90631 29.32329 310 ft 8 kts 150°
2026-04-24 09:16 40.90603 29.32390 309 ft 8 kts 114°
2026-04-24 09:17 40.90563 29.32433 310 ft 7 kts 154°
2026-04-24 09:17 40.90532 29.32452 310 ft 3 kts 154°
2026-04-24 09:17 40.90527 29.32455 310 ft 0 kts 154°
2026-04-24 09:18 40.90505 29.32469 310 ft 6 kts 154°
2026-04-24 09:18 40.90466 29.32494 311 ft 6 kts 156°
2026-04-24 09:19 40.90428 29.32476 312 ft 7 kts 233°
2026-04-24 09:19 40.90387 29.32365 311 ft 31 kts 244°
2026-04-24 09:19 40.90193 29.31841 312 ft 96 kts 244°
2026-04-24 09:19 40.89815 29.30814 312 ft 150 kts 244°
2026-04-24 09:20 40.89320 29.29459 691 ft 165 kts 243°
2026-04-24 09:20 40.88840 29.28129 1567 ft 158 kts 245°
2026-04-24 09:20 40.88367 29.26804 2292 ft 159 kts 245°
2026-04-24 09:20 40.87876 29.25425 2859 ft 175 kts 246°
2026-04-24 09:21 40.87317 29.23857 3130 ft 204 kts 247°
2026-04-24 09:21 40.86680 29.22071 3355 ft 226 kts 246°
2026-04-24 09:21 40.85981 29.20117 3755 ft 241 kts 246°
2026-04-24 09:21 40.85218 29.18115 4514 ft 245 kts 237°
2026-04-24 09:22 40.83927 29.16646 5275 ft 253 kts 205°
2026-04-24 09:22 40.82177 29.16137 5856 ft 268 kts 179°
2026-04-24 09:22 40.80343 29.16729 6522 ft 277 kts 156°
2026-04-24 09:22 40.78590 29.17831 7225 ft 281 kts 155°
2026-04-24 09:23 40.76830 29.18952 8016 ft 283 kts 154°
2026-04-24 09:23 40.75050 29.20080 8763 ft 287 kts 154°
2026-04-24 09:23 40.73214 29.21239 9343 ft 295 kts 154°
2026-04-24 09:23 40.71292 29.22107 10182 ft 295 kts 174°
2026-04-24 09:24 40.69213 29.21863 10533 ft 311 kts 192°
2026-04-24 09:24 40.67022 29.21210 10723 ft 333 kts 193°
2026-04-24 09:24 40.64721 29.20468 10959 ft 353 kts 194°
2026-04-24 09:24 40.62305 29.19694 11629 ft 359 kts 193°
2026-04-24 09:25 40.59861 29.18933 12377 ft 364 kts 193°
2026-04-24 09:25 40.57367 29.18179 13149 ft 370 kts 193°
2026-04-24 09:25 40.54843 29.17434 14081 ft 374 kts 193°
2026-04-24 09:25 40.52281 29.16691 14817 ft 380 kts 193°
2026-04-24 09:26 40.49678 29.15945 15544 ft 386 kts 193°
2026-04-24 09:26 40.47932 29.15447 16027 ft 389 kts 193°
2026-04-24 09:26 40.45265 29.14691 16705 ft 396 kts 193°
2026-04-24 09:26 40.42552 29.13924 17333 ft 402 kts 193°
2026-04-24 09:27 40.39794 29.13145 17978 ft 408 kts 193°
2026-04-24 09:27 40.36998 29.12357 18571 ft 414 kts 193°
2026-04-24 09:27 40.34185 29.11565 19288 ft 413 kts 192°
2026-04-24 09:27 40.31377 29.10776 19986 ft 413 kts 192°
2026-04-24 09:28 40.28554 29.09984 20578 ft 416 kts 192°
2026-04-24 09:28 40.25717 29.09187 21124 ft 418 kts 192°
2026-04-24 09:28 40.22861 29.08386 21668 ft 421 kts 192°
2026-04-24 09:28 40.19993 29.07582 22208 ft 423 kts 193°
2026-04-24 09:29 40.17102 29.06772 22666 ft 427 kts 192°
2026-04-24 09:29 40.14193 29.05957 23240 ft 429 kts 192°
2026-04-24 09:29 40.11280 29.05142 23827 ft 428 kts 192°
2026-04-24 09:29 40.08350 29.04324 24145 ft 434 kts 193°
2026-04-24 09:30 40.05382 29.03495 24532 ft 436 kts 193°
2026-04-24 09:30 40.01419 29.02390 24995 ft 442 kts 193°
2026-04-24 09:30 39.99387 29.01823 25300 ft 442 kts 192°
2026-04-24 09:30 39.96384 29.00987 25757 ft 442 kts 192°
2026-04-24 09:31 39.93361 29.00146 26104 ft 445 kts 192°
2026-04-24 09:31 39.90318 28.99301 26428 ft 449 kts 192°
2026-04-24 09:31 39.87255 28.98451 26784 ft 451 kts 192°
2026-04-24 09:31 39.84178 28.97597 27147 ft 453 kts 192°
2026-04-24 09:32 39.81095 28.96743 27659 ft 450 kts 192°
2026-04-24 09:32 39.78094 28.95912 28393 ft 443 kts 192°
2026-04-24 09:32 39.75082 28.95082 28853 ft 444 kts 192°
2026-04-24 09:32 39.72049 28.94245 29136 ft 447 kts 192°
2026-04-24 09:33 39.69000 28.93401 29512 ft 448 kts 192°
2026-04-24 09:33 39.65955 28.92560 29899 ft 446 kts 192°
2026-04-24 09:33 39.62961 28.91734 30003 ft 436 kts 192°
2026-04-24 09:33 39.59996 28.90917 29999 ft 435 kts 193°
2026-04-24 09:34 39.54031 28.89275 30017 ft 441 kts 193°
2026-04-24 09:34 39.48010 28.87622 30005 ft 443 kts 193°
2026-04-24 09:35 39.42001 28.85976 29987 ft 436 kts 194°
2026-04-24 09:35 39.36111 28.84365 30006 ft 433 kts 194°
2026-04-24 09:36 39.30182 28.82743 29991 ft 436 kts 194°
2026-04-24 09:36 39.24296 28.81140 29987 ft 430 kts 195°
2026-04-24 09:37 39.18503 28.79566 29985 ft 424 kts 195°
2026-04-24 09:37 39.12706 28.77987 29989 ft 427 kts 195°
2026-04-24 09:38 39.06875 28.76403 29984 ft 429 kts 195°
2026-04-24 09:38 39.01017 28.74816 29986 ft 431 kts 195°
2026-04-24 09:39 38.95152 28.73231 29977 ft 431 kts 195°
2026-04-24 09:39 38.89295 28.71651 29962 ft 429 kts 197°
2026-04-24 09:40 38.86414 28.70878 29969 ft 416 kts 198°
2026-04-24 09:40 38.83605 28.70126 29975 ft 410 kts 198°
2026-04-24 09:40 38.78063 28.68629 29979 ft 411 kts 198°
2026-04-24 09:41 38.72454 28.67120 29994 ft 412 kts 198°
2026-04-24 09:41 38.66829 28.65642 29976 ft 413 kts 198°
2026-04-24 09:42 38.64042 28.64893 29642 ft 404 kts 198°
2026-04-24 09:42 38.61326 28.64155 29367 ft 394 kts 198°
2026-04-24 09:42 38.58638 28.63520 29070 ft 393 kts 193°
2026-04-24 09:42 38.55891 28.63391 28790 ft 399 kts 184°
2026-04-24 09:43 38.53118 28.63619 28531 ft 398 kts 183°
2026-04-24 09:43 38.50354 28.63873 28230 ft 398 kts 184°
2026-04-24 09:43 38.47602 28.64127 27983 ft 396 kts 185°
2026-04-24 09:43 38.44860 28.64374 27699 ft 394 kts 185°
2026-04-24 09:44 38.42139 28.64612 27424 ft 391 kts 185°
2026-04-24 09:44 38.39435 28.64838 27172 ft 388 kts 185°
2026-04-24 09:44 38.36778 28.65060 26903 ft 386 kts 185°
2026-04-24 09:44 38.34108 28.65282 26649 ft 384 kts 185°
2026-04-24 09:45 38.31452 28.65501 26391 ft 381 kts 185°
2026-04-24 09:45 38.28806 28.65718 26120 ft 379 kts 186°
2026-04-24 09:45 38.26181 28.65932 25871 ft 377 kts 186°
2026-04-24 09:45 38.23574 28.66145 25612 ft 374 kts 186°
2026-04-24 09:46 38.20979 28.66356 25369 ft 372 kts 186°
2026-04-24 09:46 38.18394 28.66567 25109 ft 371 kts 186°
2026-04-24 09:46 38.15824 28.66775 24858 ft 370 kts 186°
2026-04-24 09:46 38.13259 28.66982 24628 ft 369 kts 186°
2026-04-24 09:47 38.10697 28.67189 24405 ft 368 kts 186°
2026-04-24 09:47 38.08176 28.67394 24137 ft 368 kts 186°
2026-04-24 09:47 38.05621 28.67600 23899 ft 368 kts 186°
2026-04-24 09:47 38.03070 28.67806 23663 ft 368 kts 186°
2026-04-24 09:48 38.00511 28.68012 23415 ft 369 kts 186°
2026-04-24 09:48 37.97939 28.68220 23142 ft 369 kts 185°
2026-04-24 09:48 37.95384 28.68429 22871 ft 367 kts 185°
2026-04-24 09:48 37.92842 28.68636 22602 ft 365 kts 185°
2026-04-24 09:49 37.90313 28.68842 22297 ft 363 kts 186°
2026-04-24 09:49 37.87807 28.69046 21911 ft 358 kts 186°
2026-04-24 09:49 37.85333 28.69242 21529 ft 354 kts 185°
2026-04-24 09:49 37.82887 28.69441 21100 ft 351 kts 185°
2026-04-24 09:50 37.80458 28.69640 20725 ft 348 kts 185°
2026-04-24 09:50 37.78044 28.69832 20313 ft 347 kts 185°
2026-04-24 09:50 37.75639 28.70024 19919 ft 345 kts 185°
2026-04-24 09:50 37.73241 28.70217 19518 ft 344 kts 185°
2026-04-24 09:51 37.70857 28.70404 19120 ft 343 kts 185°
2026-04-24 09:51 37.68477 28.70577 18721 ft 342 kts 185°
2026-04-24 09:51 37.66129 28.70745 18314 ft 341 kts 185°
2026-04-24 09:51 37.63764 28.70913 17905 ft 340 kts 184°
2026-04-24 09:52 37.61409 28.71083 17481 ft 338 kts 184°
2026-04-24 09:52 37.59068 28.71251 17084 ft 336 kts 184°
2026-04-24 09:52 37.56739 28.71417 16702 ft 335 kts 184°
2026-04-24 09:52 37.54419 28.71583 16318 ft 333 kts 183°
2026-04-24 09:53 37.52113 28.71749 15944 ft 331 kts 183°
2026-04-24 09:53 37.49812 28.71914 15467 ft 332 kts 182°
2026-04-24 09:53 37.47489 28.72125 14950 ft 336 kts 181°
2026-04-24 09:53 37.45168 28.72362 14710 ft 330 kts 181°
2026-04-24 09:54 37.42922 28.72594 14731 ft 319 kts 182°
2026-04-24 09:54 37.40689 28.72814 14731 ft 326 kts 182°
2026-04-24 09:54 37.38441 28.72854 14706 ft 319 kts 196°
2026-04-24 09:54 37.36411 28.71902 14738 ft 310 kts 217°
2026-04-24 09:55 37.34791 28.70149 14724 ft 305 kts 233°
2026-04-24 09:55 37.33710 28.67941 14744 ft 301 kts 246°
2026-04-24 09:55 37.32851 28.65558 14498 ft 302 kts 248°
2026-04-24 09:55 37.32013 28.63119 14037 ft 305 kts 248°
2026-04-24 09:56 37.31151 28.60647 13383 ft 311 kts 247°
2026-04-24 09:56 37.30265 28.58153 12827 ft 313 kts 247°
2026-04-24 09:56 37.29373 28.55667 12384 ft 311 kts 246°
2026-04-24 09:56 37.28479 28.53193 11928 ft 311 kts 246°
2026-04-24 09:57 37.27588 28.50733 11520 ft 309 kts 246°
2026-04-24 09:57 37.26698 28.48273 11072 ft 310 kts 246°
2026-04-24 09:57 37.25803 28.45805 10601 ft 311 kts 246°
2026-04-24 09:57 37.24923 28.43380 10519 ft 300 kts 246°
2026-04-24 09:58 37.24073 28.41040 10439 ft 289 kts 246°
2026-04-24 09:58 37.23253 28.38782 10362 ft 280 kts 246°
2026-04-24 09:58 37.22451 28.36578 10159 ft 276 kts 246°
2026-04-24 09:58 37.21650 28.34378 9759 ft 279 kts 246°
2026-04-24 09:59 37.20843 28.32161 9421 ft 278 kts 246°
2026-04-24 09:59 37.20050 28.29985 9045 ft 273 kts 246°
2026-04-24 09:59 37.19257 28.27810 8553 ft 274 kts 246°
2026-04-24 09:59 37.18471 28.25657 8128 ft 271 kts 246°
2026-04-24 10:00 37.17693 28.23524 7664 ft 274 kts 246°
2026-04-24 10:00 37.16908 28.21373 7513 ft 267 kts 246°
2026-04-24 10:00 37.16153 28.19312 7437 ft 252 kts 246°
2026-04-24 10:00 37.15438 28.17358 7332 ft 241 kts 246°
2026-04-24 10:01 37.14743 28.15461 7160 ft 238 kts 246°
2026-04-24 10:01 37.14133 28.13560 7012 ft 234 kts 261°
2026-04-24 10:01 37.14330 28.11581 6910 ft 232 kts 291°
2026-04-24 10:01 37.14912 28.09695 6785 ft 231 kts 287°
2026-04-24 10:02 37.15384 28.07804 6704 ft 224 kts 286°
2026-04-24 10:02 37.15822 28.05949 6571 ft 220 kts 284°
2026-04-24 10:02 37.16248 28.04122 6429 ft 217 kts 284°
2026-04-24 10:02 37.16671 28.02310 6313 ft 217 kts 285°
2026-04-24 10:03 37.17096 28.00499 6177 ft 216 kts 284°
2026-04-24 10:03 37.17518 27.98693 6047 ft 216 kts 285°
2026-04-24 10:03 37.17935 27.96914 5902 ft 213 kts 285°
2026-04-24 10:03 37.18346 27.95164 5670 ft 209 kts 285°
2026-04-24 10:04 37.18758 27.93415 5342 ft 209 kts 285°
2026-04-24 10:04 37.19171 27.91663 4962 ft 208 kts 285°
2026-04-24 10:04 37.19577 27.89928 4601 ft 206 kts 286°
2026-04-24 10:04 37.19984 27.88203 4248 ft 207 kts 286°
2026-04-24 10:05 37.20394 27.86462 3877 ft 208 kts 286°
2026-04-24 10:05 37.20804 27.84720 3508 ft 207 kts 286°
2026-04-24 10:05 37.21210 27.83000 3147 ft 203 kts 287°
2026-04-24 10:05 37.21607 27.81319 2799 ft 200 kts 287°
2026-04-24 10:06 37.21999 27.79658 2456 ft 195 kts 286°
2026-04-24 10:06 37.22737 27.76537 1798 ft 182 kts 286°
2026-04-24 10:06 37.23087 27.75056 1505 ft 171 kts 286°
2026-04-24 10:07 37.23416 27.73669 1198 ft 159 kts 287°
2026-04-24 10:07 37.23722 27.72378 951 ft 151 kts 286°
2026-04-24 10:07 37.24019 27.71113 661 ft 151 kts 287°
2026-04-24 10:07 37.24314 27.69866 430 ft 148 kts 286°
2026-04-24 10:08 37.24613 27.68622 172 ft 149 kts 286°
2026-04-24 10:08 37.24906 27.67396 33 ft 139 kts 286°
2026-04-24 10:08 37.25130 27.66449 30 ft 78 kts 286°
2026-04-24 10:08 37.25228 27.66040 29 ft 29 kts 285°
2026-04-24 10:09 37.25249 27.65798 28 ft 23 kts 266°
2026-04-24 10:09 37.25232 27.65669 28 ft 13 kts 259°
2026-04-24 10:09 37.25180 27.65598 29 ft 12 kts 174°
2026-04-24 10:09 37.25139 27.65686 29 ft 12 kts 107°
2026-04-24 10:10 37.25109 27.65810 29 ft 19 kts 107°
2026-04-24 10:10 37.25065 27.65989 29 ft 25 kts 107°
2026-04-24 10:10 37.25013 27.66212 30 ft 27 kts 106°
2026-04-24 10:10 37.24961 27.66429 28 ft 25 kts 107°
2026-04-24 10:11 37.24913 27.66632 27 ft 23 kts 107°
2026-04-24 10:11 37.24873 27.66800 27 ft 16 kts 106°
2026-04-24 10:11 37.24826 27.66907 28 ft 12 kts 135°
2026-04-24 10:11 37.24758 27.66960 29 ft 9 kts 154°
2026-04-24 10:12 37.24697 27.66963 29 ft 8 kts 194°
2026-04-24 10:12 37.24657 27.66994 29 ft 8 kts 113°
2026-04-24 10:12 37.24636 27.67081 29 ft 13 kts 107°
2026-04-24 10:12 37.24610 27.67190 30 ft 13 kts 107°
2026-04-24 10:13 37.24585 27.67296 30 ft 12 kts 107°
2026-04-24 10:13 37.24566 27.67374 30 ft 7 kts 107°
2026-04-24 10:13 37.24543 27.67403 30 ft 5 kts 172°
2026-04-24 10:13 37.24514 27.67397 30 ft 3 kts 195°
2026-04-24 10:14 37.24500 27.67392 30 ft 1 kts 196°
2026-04-24 10:14 37.24498 27.67391 30 ft 0 kts 196°